Tracking 27380 objects as of 5-Jun-2023
HD Live streaming from Space Station
objects crossing your sky now

FREGAT DEB

Track FREGAT DEB now!
10-day predictions


NORAD ID: 45644
Int'l Code: 2011-037AL
Perigee: 489.1 km
Apogee: 1,774.2 km
Inclination: 51.4 °
Period: 107.8 minutes
Semi major axis: 7502 km
RCS: Unknown
Launch date: July 18, 2011
Source: Commonwealth of Independent States (former USSR) (CIS)
Launch site: TYURATAM MISSILE AND SPACE COMPLEX (TTMTR)

Note: This is SATELLITE DEBRIS
Your satellite tracking list
Your tracking list is empty




NASA's NSSDC Master Catalog

Two Line Element Set (TLE):
1 45644U 11037AL  23155.05316399  .00208404  00000-0  42557-1 0  9999
2 45644  51.4222  43.3727 0856388 325.6965  29.1346 13.35923520134197
Source of the keplerian elements: AFSPC